Location: Bieg
(49.3499°N, 10.3835°E)
Time: 09:14:58
(UTC+00:00)

Cosmos 1346 Rocket - Pass Details

Date: 15 August 2024
Orbit: 503 x 516 km, 81.2° (Epoch: 10 September)

Event Time Altitude Azimuth Distance (km) Brightness Sun altitude
Exits shadow 00:40:31 21° 96° (E) 1,187 4.6 -24.4°
Maximum altitude 00:40:47 21° 90° (E) 1,182 4.7 -24.4°
Drops below altitude 10° 00:43:39 10° 41° (NE) 1,725 6.3 -24.2°
Sets 00:46:08 0° 25° (NNE) 2,617 7.7 -24.1°
